| time (UTC) | temp F | wind direction | speed knots | gust knots | rain 1hr in | rain 24hr in | rain mn in | humidity % | barometer mb |
| 20260906075104 | 63 | 62 | 1.7 | 5.2 | 0.00 | 0.16 | 0.00 | 71 | 1027.0 |
| 20260906074107 | 62 | 78 | 1.7 | 4.3 | 0.00 | 0.16 | 0.00 | 71 | 1026.9 |
| 20260906073227 | 62 | 56 | 1.7 | 4.3 | 0.00 | 0.16 | 0.00 | 72 | 1026.9 |
| 20260906072105 | 62 | 71 | 0.9 | 5.2 | 0.00 | 0.16 | 0.00 | 72 | 1026.9 |
| 20260906071037 | 63 | 85 | 1.7 | 4.3 | 0.00 | 0.16 | 0.00 | 70 | 1026.9 |
| 20260906070037 | 62 | 64 | 0.9 | 4.3 | 0.00 | 0.16 | 0.00 | 73 | 1026.8 |
| 20260906065036 | 61 | 67 | 1.7 | 4.3 | 0.00 | 0.16 | 0.00 | 73 | 1026.8 |
| 20260906064037 | 61 | 73 | 0.9 | 2.6 | 0.00 | 0.16 | 0.00 | 72 | 1026.8 |
| 20260906063037 | 61 | 72 | 0.0 | 0.9 | 0.00 | 0.16 | 0.00 | 84 | 1027.0 |
| 20260906062117 | 60 | 84 | 0.0 | 0.9 | 0.00 | 0.17 | 0.00 | 87 | 1027.1 |
| 20260906061038 | 59 | 56 | 0.9 | 1.7 | 0.00 | 0.17 | 0.00 | 90 | 1026.8 |
| 20260906060038 | 57 | 79 | 0.0 | 0.9 | 0.00 | 0.18 | 0.00 | 97 | 1026.8 |
| 20260906055040 | 56 | 72 | 0.9 | 1.7 | 0.00 | 0.19 | 0.00 | 99 | 1026.6 |
| 20260906054040 | 55 | 41 | 0.9 | 1.7 | 0.00 | 0.19 | 0.00 | 99 | 1026.9 |
| 20260906053040 | 55 | 64 | 0.9 | 0.9 | 0.00 | 0.19 | 0.00 | 99 | 1026.8 |
| 20260906052040 | 54 | 64 | 0.9 | 1.7 | 0.00 | 0.19 | 0.00 | 99 | 1026.7 |
| 20260906051040 | 54 | 113 | 0.0 | 0.9 | 0.00 | 0.19 | 0.00 | 99 | 1026.7 |
| 20260906050100 | 54 | 74 | 0.9 | 1.7 | 0.00 | 0.20 | 0.00 | 99 | 1026.5 |
| 20260906045041 | 54 | 0.0 | 0.0 | 0.00 | 0.22 | 0.00 | 99 | 1026.4 | |
| 20260906044041 | 54 | 0.0 | 0.0 | 0.00 | 0.22 | 0.00 | 99 | 1026.5 | |
| 20260906043042 | 54 | 0.0 | 0.0 | 0.00 | 0.22 | 0.00 | 99 | 1026.5 | |
| 20260906042042 | 54 | 0.0 | 0.0 | 0.00 | 0.22 | 0.00 | 99 | 1026.5 | |
| 20260906041043 | 55 | 0.0 | 0.0 | 0.00 | 0.22 | 0.00 | 99 | 1026.2 | |
| 20260906040043 | 56 | 0.0 | 0.0 | 0.00 | 0.22 | 0.00 | 99 | 1026.1 | |
| 20260906035043 | 56 | 0.0 | 0.0 | 0.00 | 0.22 | 0.00 | 99 | 1026.2 | |
| 20260906034044 | 56 | 0.0 | 0.0 | 0.00 | 0.22 | 0.00 | 99 | 1026.2 | |
| 20260906033045 | 56 | 84 | 0.0 | 1.7 | 0.00 | 0.22 | 0.00 | 99 | 1026.1 |
| 20260906032107 | 56 | 17 | 0.9 | 2.6 | 0.00 | 0.22 | 0.00 | 99 | 1026.1 |
| 20260906031045 | 56 | 0.0 | 0.9 | 0.00 | 0.22 | 0.00 | 99 | 1026.1 | |
| 20260906030225 | 56 | 76 | 0.0 | 0.9 | 0.00 | 0.22 | 0.00 | 99 | 1025.9 |
| 20260906025048 | 56 | 81 | 0.0 | 0.9 | 0.00 | 0.22 | 0.00 | 99 | 1026.0 |
| 20260906024047 | 55 | 0.0 | 0.9 | 0.00 | 0.22 | 0.00 | 99 | 1026.0 | |
| 20260906023107 | 55 | 0.0 | 0.9 | 0.00 | 0.22 | 0.00 | 99 | 1026.1 | |
| 20260906022107 | 55 | 29 | 1.7 | 2.6 | 0.00 | 0.22 | 0.00 | 99 | 1026.0 |
| 20260906021048 | 55 | 68 | 0.9 | 1.7 | 0.00 | 0.22 | 0.00 | 99 | 1026.1 |
| 20260906020049 | 56 | 342 | 1.7 | 2.6 | 0.00 | 0.22 | 0.00 | 99 | 1026.0 |
| 20260906015049 | 56 | 333 | 1.7 | 2.6 | 0.00 | 0.22 | 0.00 | 99 | 1026.0 |
| 20260906014049 | 56 | 339 | 1.7 | 2.6 | 0.00 | 0.22 | 0.00 | 99 | 1025.9 |
| 20260906011053 | 58 | 325 | 2.6 | 4.3 | 0.00 | 0.22 | 0.00 | 96 | 1025.8 |
| 20260906010053 | 58 | 6 | 1.7 | 2.6 | 0.00 | 0.22 | 0.00 | 95 | 1025.9 |
| 20260906005054 | 59 | 22 | 3.5 | 6.1 | 0.00 | 0.22 | 0.00 | 95 | 1025.9 |
| 20260906004054 | 59 | 17 | 2.6 | 6.1 | 0.00 | 0.22 | 0.00 | 95 | 1025.7 |
| 20260906003055 | 60 | 15 | 1.7 | 2.6 | 0.00 | 0.22 | 0.00 | 91 | 1025.7 |
| 20260906002115 | 61 | 63 | 0.9 | 1.7 | 0.00 | 0.22 | 0.00 | 91 | 1025.6 |
| 20260906001056 | 61 | 135 | 0.9 | 0.9 | 0.00 | 0.22 | 0.00 | 91 | 1025.7 |
| 20260906000116 | 61 | 131 | 0.0 | 1.7 | 0.00 | 0.22 | 0.00 | 91 | 1025.7 |
| 20260905235057 | 60 | 128 | 0.0 | 0.9 | 0.00 | 0.22 | 0.00 | 92 | 1025.8 |
| 20260905234058 | 60 | 128 | 0.9 | 0.9 | 0.00 | 0.22 | 0.00 | 92 | 1025.8 |
| 20260905233058 | 60 | 136 | 0.0 | 0.9 | 0.00 | 0.22 | 0.00 | 92 | 1025.7 |
| 20260905232108 | 60 | 129 | 0.0 | 0.9 | 0.00 | 0.22 | 0.00 | 93 | 1025.8 |
| 20260905231058 | 59 | 152 | 0.9 | 1.7 | 0.00 | 0.22 | 0.00 | 96 | 1025.8 |
| 20260905230059 | 59 | 139 | 0.0 | 1.7 | 0.00 | 0.22 | 0.00 | 96 | 1025.7 |
| 20260905225059 | 59 | 0.0 | 0.0 | 0.00 | 0.22 | 0.00 | 96 | 1025.6 | |
| 20260905224101 | 59 | 0.0 | 0.0 | 0.00 | 0.22 | 0.00 | 94 | 1025.5 | |
| 20260905223101 | 60 | 0.0 | 0.0 | 0.00 | 0.22 | 0.00 | 93 | 1025.4 | |
| 20260905222102 | 61 | 148 | 0.9 | 1.7 | 0.00 | 0.22 | 0.00 | 92 | 1025.5 |
| 20260905221121 | 61 | 191 | 0.9 | 2.6 | 0.00 | 0.22 | 0.00 | 91 | 1025.5 |
| 20260905215103 | 61 | 268 | 1.7 | 5.2 | 0.00 | 0.22 | 0.22 | 90 | 1025.3 |
| 20260905214103 | 61 | 80 | 0.9 | 1.7 | 0.00 | 0.22 | 0.22 | 91 | 1025.3 |
| 20260905213103 | 62 | 339 | 0.0 | 1.7 | 0.00 | 0.22 | 0.22 | 90 | 1025.3 |
| 20260905212104 | 62 | 47 | 0.9 | 2.6 | 0.00 | 0.22 | 0.22 | 90 | 1025.2 |
| 20260905211103 | 61 | 60 | 0.9 | 1.7 | 0.00 | 0.22 | 0.22 | 92 | 1025.1 |
| 20260905210104 | 61 | 63 | 0.9 | 2.6 | 0.00 | 0.22 | 0.22 | 92 | 1025.1 |
| 20260905205104 | 61 | 57 | 1.7 | 2.6 | 0.00 | 0.22 | 0.22 | 92 | 1025.0 |
| 20260905204125 | 62 | 72 | 0.9 | 2.6 | 0.00 | 0.22 | 0.22 | 91 | 1025.0 |
| 20260905203037 | 63 | 72 | 0.9 | 2.6 | 0.00 | 0.22 | 0.22 | 89 | 1024.9 |
| 20260905202038 | 64 | 59 | 0.9 | 2.6 | 0.00 | 0.22 | 0.22 | 86 | 1024.7 |
| 20260905201039 | 64 | 353 | 1.7 | 4.3 | 0.00 | 0.22 | 0.22 | 85 | 1024.7 |
| 20260905200038 | 65 | 296 | 2.6 | 5.2 | 0.00 | 0.22 | 0.22 | 84 | 1024.7 |
| 20260905195039 | 65 | 39 | 1.7 | 6.1 | 0.00 | 0.22 | 0.22 | 83 | 1024.5 |
| 20260905194040 | 66 | 264 | 3.5 | 9.6 | 0.00 | 0.22 | 0.22 | 82 | 1024.3 |
| 20260905193041 | 66 | 258 | 4.3 | 12.2 | 0.00 | 0.22 | 0.22 | 82 | 1024.2 |
| 20260905192040 | 66 | 256 | 3.5 | 9.6 | 0.00 | 0.22 | 0.22 | 83 | 1024.1 |
| 20260905191120 | 66 | 243 | 2.6 | 7.0 | 0.00 | 0.22 | 0.22 | 85 | 1023.9 |
| 20260905185042 | 67 | 187 | 2.6 | 7.0 | 0.00 | 0.22 | 0.22 | 85 | 1023.7 |
| 20260905184101 | 67 | 235 | 4.3 | 9.6 | 0.00 | 0.22 | 0.22 | 85 | 1023.6 |
| 20260905183042 | 67 | 219 | 4.3 | 8.7 | 0.00 | 0.22 | 0.22 | 86 | 1023.5 |
| 20260905182102 | 66 | 198 | 2.6 | 7.0 | 0.00 | 0.22 | 0.22 | 88 | 1023.3 |
| 20260905181043 | 66 | 185 | 2.6 | 6.1 | 0.00 | 0.22 | 0.22 | 89 | 1023.2 |
| 20260905180044 | 66 | 206 | 1.7 | 5.2 | 0.00 | 0.22 | 0.22 | 88 | 1023.1 |
| 20260905175044 | 67 | 216 | 1.7 | 6.1 | 0.00 | 0.22 | 0.22 | 87 | 1023.2 |
| 20260905174104 | 67 | 185 | 1.7 | 4.3 | 0.00 | 0.22 | 0.22 | 87 | 1023.1 |
| 20260905173045 | 67 | 202 | 1.7 | 4.3 | 0.00 | 0.22 | 0.22 | 86 | 1022.9 |
| 20260905172045 | 68 | 213 | 2.6 | 5.2 | 0.00 | 0.22 | 0.22 | 85 | 1022.9 |
| 20260905171114 | 69 | 206 | 1.7 | 5.2 | 0.00 | 0.22 | 0.22 | 83 | 1022.9 |
| 20260905170046 | 69 | 224 | 2.6 | 6.1 | 0.00 | 0.22 | 0.22 | 83 | 1022.9 |
| 20260905165046 | 69 | 191 | 2.6 | 7.0 | 0.00 | 0.22 | 0.22 | 82 | 1022.9 |
| 20260905164107 | 70 | 212 | 2.6 | 6.1 | 0.00 | 0.22 | 0.22 | 81 | 1022.9 |
| 20260905163047 | 70 | 210 | 1.7 | 6.1 | 0.00 | 0.22 | 0.22 | 79 | 1022.7 |
| 20260905162048 | 70 | 213 | 1.7 | 7.8 | 0.00 | 0.22 | 0.22 | 79 | 1022.8 |
| 20260905161048 | 70 | 228 | 4.3 | 9.6 | 0.00 | 0.22 | 0.22 | 79 | 1022.8 |
| 20260905160108 | 70 | 244 | 3.5 | 7.8 | 0.00 | 0.22 | 0.22 | 79 | 1022.8 |
| 20260905155049 | 70 | 278 | 2.6 | 7.0 | 0.00 | 0.22 | 0.22 | 78 | 1022.7 |
| 20260905154109 | 70 | 262 | 4.3 | 8.7 | 0.00 | 0.22 | 0.22 | 78 | 1022.8 |
| 20260905153104 | 70 | 259 | 3.5 | 7.8 | 0.00 | 0.22 | 0.22 | 78 | 1022.8 |
| 20260905152051 | 69 | 235 | 5.2 | 12.2 | 0.00 | 0.22 | 0.22 | 79 | 1022.9 |
| 20260905151050 | 70 | 216 | 3.5 | 7.8 | 0.00 | 0.22 | 0.22 | 76 | 1022.8 |
| 20260905150059 | 70 | 240 | 4.3 | 11.3 | 0.00 | 0.23 | 0.22 | 75 | 1022.9 |
| 20260905145051 | 69 | 242 | 5.2 | 12.2 | 0.00 | 0.23 | 0.22 | 75 | 1022.9 |
| 20260905144052 | 69 | 224 | 3.5 | 8.7 | 0.00 | 0.23 | 0.22 | 76 | 1022.9 |
| 20260905143052 | 69 | 251 | 4.3 | 9.6 | 0.00 | 0.23 | 0.22 | 77 | 1022.9 |
| 20260905142053 | 69 | 236 | 4.3 | 7.8 | 0.00 | 0.23 | 0.22 | 78 | 1022.9 |
| 20260905140553 | 67 | 226 | 4.3 | 9.6 | 0.00 | 0.23 | 0.22 | 80 | 1023.2 |
| 20260905135554 | 68 | 239 | 4.3 | 8.7 | 0.00 | 0.23 | 0.22 | 81 | 1023.2 |
| 20260905134554 | 67 | 208 | 4.3 | 11.3 | 0.00 | 0.23 | 0.22 | 82 | 1023.3 |
| 20260905133555 | 66 | 241 | 3.5 | 8.7 | 0.00 | 0.23 | 0.22 | 83 | 1023.4 |
| 20260905132615 | 65 | 265 | 3.5 | 7.0 | 0.00 | 0.23 | 0.22 | 87 | 1023.4 |
| 20260905131555 | 64 | 219 | 3.5 | 9.6 | 0.00 | 0.23 | 0.22 | 89 | 1023.3 |
| 20260905130555 | 63 | 247 | 2.6 | 8.7 | 0.00 | 0.23 | 0.22 | 91 | 1023.3 |
| 20260905125556 | 63 | 251 | 3.5 | 11.3 | 0.00 | 0.23 | 0.22 | 92 | 1023.4 |
| 20260905124557 | 63 | 226 | 5.2 | 9.6 | 0.00 | 0.23 | 0.22 | 92 | 1023.4 |
| 20260905123557 | 63 | 224 | 3.5 | 7.0 | 0.00 | 0.23 | 0.22 | 94 | 1023.3 |
| 20260905122557 | 63 | 222 | 2.6 | 5.2 | 0.00 | 0.23 | 0.22 | 96 | 1023.2 |
| 20260905121558 | 63 | 173 | 2.6 | 5.2 | 0.00 | 0.23 | 0.22 | 95 | 1023.0 |
| 20260905120558 | 62 | 226 | 2.6 | 5.2 | 0.00 | 0.23 | 0.22 | 94 | 1023.1 |
| 20260905115618 | 62 | 238 | 2.6 | 7.0 | 0.00 | 0.23 | 0.22 | 93 | 1023.3 |
| 20260905114719 | 62 | 156 | 0.9 | 4.3 | 0.00 | 0.23 | 0.22 | 95 | 1023.1 |
| 20260905113600 | 62 | 207 | 2.6 | 6.1 | 0.01 | 0.23 | 0.22 | 96 | 1023.0 |
| 20260905112620 | 62 | 198 | 1.7 | 5.2 | 0.01 | 0.23 | 0.22 | 96 | 1023.1 |
| 20260905111620 | 61 | 171 | 1.7 | 6.1 | 0.01 | 0.23 | 0.22 | 97 | 1023.1 |
| 20260905110615 | 61 | 210 | 1.7 | 4.3 | 0.01 | 0.23 | 0.22 | 96 | 1023.2 |
| 20260905105601 | 60 | 193 | 2.6 | 6.1 | 0.01 | 0.23 | 0.22 | 95 | 1022.9 |
| 20260905104602 | 60 | 144 | 1.7 | 4.3 | 0.02 | 0.23 | 0.22 | 97 | 1023.1 |
| 20260905103604 | 60 | 261 | 1.7 | 4.3 | 0.05 | 0.22 | 0.21 | 98 | 1023.1 |
| 20260905102606 | 59 | 183 | 1.7 | 5.2 | 0.07 | 0.22 | 0.21 | 98 | 1023.1 |
| 20260905101603 | 59 | 142 | 0.9 | 2.6 | 0.12 | 0.22 | 0.21 | 99 | 1023.0 |
| 20260905100604 | 58 | 159 | 0.9 | 4.3 | 0.15 | 0.22 | 0.21 | 99 | 1023.0 |
| 20260905095625 | 59 | 147 | 0.9 | 2.6 | 0.15 | 0.22 | 0.21 | 99 | 1023.1 |
| 20260905094624 | 58 | 144 | 0.9 | 2.6 | 0.14 | 0.21 | 0.20 | 99 | 1023.1 |
| 20260905093605 | 59 | 177 | 2.6 | 6.1 | 0.10 | 0.17 | 0.16 | 99 | 1023.2 |
| 20260905092607 | 59 | 170 | 1.7 | 5.2 | 0.08 | 0.15 | 0.14 | 98 | 1023.0 |
| 20260905091618 | 60 | 180 | 0.9 | 4.3 | 0.03 | 0.10 | 0.09 | 94 | 1022.8 |
| 20260905090606 | 60 | 183 | 2.6 | 4.3 | 0.00 | 0.07 | 0.06 | 93 | 1022.9 |
| 20260905085607 | 61 | 143 | 0.9 | 1.7 | 0.00 | 0.07 | 0.06 | 92 | 1022.9 |
| 20260905084607 | 61 | 161 | 3.5 | 5.2 | 0.00 | 0.07 | 0.06 | 91 | 1022.6 |
| 20260905083647 | 60 | 167 | 2.6 | 6.1 | 0.00 | 0.07 | 0.06 | 91 | 1022.7 |
| 20260905082608 | 60 | 168 | 0.9 | 2.6 | 0.00 | 0.07 | 0.06 | 95 | 1022.7 |
| 20260905081648 | 60 | 93 | 0.0 | 1.7 | 0.00 | 0.07 | 0.06 | 94 | 1022.6 |
| 20260905080608 | 59 | 117 | 1.7 | 2.6 | 0.00 | 0.07 | 0.06 | 94 | 1022.6 |